STARLINK-11282, 60992

Orbit data source: Space-Track

STARLINK-11282, 60992 is a payload satellite owned by SpaceX/Seattle (US) in LEO that was launched on Thu, 05 Sep 2024 UTC via an FALCON 9 launch vehicle from the Air Force Eastern Test Range (AFETR). Payload-class satellites include a variety of spacecraft equipped with specific instruments for various scientific and technological missions. These include communications satellites like Starlink; space stations such as the ISS; scientific satellites like the Hubble; Earth observation satellites from companies like Planet Labs, Umbra, and HawkEye 360; GPS; miniature CubeSats for education and research; and military/defense satellites.

Loading next visibility...
Identifier
60992, 2024-158C
Orbit
LEO
Country
Flag of USUS
Related business
Manufacturer
SpaceX/Seattle
Mission
Operational Commercial Communications
Bus & Motor
STARLINK V2MD, Unknown motor
Mass
960 kg wet, ~910 kg dry
Launch date (UTC)
2024-09-05 (1 year ago)
Launch vehicle
FALCON 9
Launch site
Air Force Eastern Test Range (AFETR)
Object type
Payload
Rocket body
Debris
Shape & HBR
Box + 2 Pan, 14.5 m
Radar Cross Section
36.964 m², Large (>1 m²)

Expand to show TLE details & history
Last TLE update: 1 day ago

TLE from 1 day ago
0 STARLINK-11282
1 60992U 24158C   25260.69025088  .00000522  00000-0  91724-5 0  9996
2 60992  53.1581  54.0534 0001562  92.9238 267.1959 15.69708612 60425
Epoch: 2025-09-17T16:33Z
TLE epoch observation values (Epoch: 2025-09-17T16:33:57.676Z)
Latitude
0.00003°
Longitude
168.70052°
Altitude
360.697 km
Speed
7.694 km/s
True Right ascension
03h 36m 12s
True Declination
0° 00' 00"
Sunlit
Object was in full shadow at epoch
Visualization orbit readout
Latitude
Unknown
Longitude
Unknown
Altitude
Unknown
Speed
Unknown
Apparent Right ascension
Unknown
Apparent Declination
Unknown
Sunlit
N/A
Visualization observer readout
Local Sidereal Time
17:43:06
Azimuth
Unknown
Elevation
Unknown
Doppler factor
Unknown
Orbital elements
Apogee altitude
361.044 km
Perigee altitude
358.939 km
Semi-major axis
6,738.129 km
Eccentricity
0.00016
Inclination
53.1581°
RAAN
54.0534°
Arg. of periapsis
92.9238°
True anomaly
267.17802°
Mean anomaly
267.1959°
Eccentric anomaly
267.18696°
Mean motion
3.92405 °/min
Orbital period
91.74 mins
BSTAR
0.0000091724
Loading maneuver chart data...
Computing Atmospheric mass density...
Loading historical data...
Loading historical data...
Loading historical data...
Loading historical data...
Loading historical data...
Loading historical data...
Loading historical data...

Documentation

Showing up to 5 results
|